Aviation Digital Data Service (ADDS)

Output produced by METARs form (2056 UTC 29 May 2017)
found at http://www.aviationweather.gov/adds/metars/
 
OIAA 292000Z 32008KT CAVOK 35/09 Q1006
TAF OIAA 291710Z 2918/3024 31005MPS CAVOK 
     TEMPO 3008/3024 32010MPS 2000 SA DU NSC
       
OIBA 291500Z 25004KT 4000 BR NSC 31/31 Q1000
OIAG 292000Z 31008KT CAVOK 34/06 Q1004
OIAW 292030Z 31008KT CAVOK 37/11 Q1004
TAF OIAW 291710Z 2918/3024 33005MPS CAVOK 
     TEMPO 3008/3024 32010MPS 2000 SA DU NSC
       
OITL 291952Z 11006KT 6000 PRFG OVC004 12/12 Q1022
OIAA 292000Z 32008KT CAVOK 35/09 Q1006
TAF OIAA 291710Z 2918/3024 31005MPS CAVOK 
     TEMPO 3008/3024 32010MPS 2000 SA DU NSC
       
OIAD 291900Z 00000KT 7000 NSC 35/09 Q1007 A2974
OIAG 292000Z 31008KT CAVOK 34/06 Q1004
OIAH 292000Z 31008KT CAVOK 37/M11 Q1010
OIAI 292000Z 32002KT CAVOK 34/M05 Q1007
OIAM 292000Z 30014KT CAVOK 36/11 Q1004
OIAW 292030Z 31008KT CAVOK 37/11 Q1004
TAF OIAW 291710Z 2918/3024 33005MPS CAVOK 
     TEMPO 3008/3024 32010MPS 2000 SA DU NSC
       
OIBA 291500Z 25004KT 4000 BR NSC 31/31 Q1000
OIBB 292000Z 33017KT CAVOK 32/18 Q1002 A2961
OIBJ 291500Z 23006KT CAVOK 40/13 Q1007
OIBK 292000Z 27004KT 0200 FG VV005 29/29 Q1001
TAF AMD OIBK 291830Z 2918/3024 27003MPS 0500 FG NSC 
     BECMG 3003/3005 4000 HZ
       
OIBL 291800Z 25006KT 3000 BR NSC 30/29 Q1001
OIBP 291700Z 32004KT CAVOK 31/28 Q0999 A2952
OIBQ 291500Z 30016KT CAVOK 33/23 Q1001
OIBS 291500Z 23008KT 4000 HZ NSC 32/28 Q1000
OICC 292030Z 10004KT CAVOK 18/02 Q1020 A3012
OICI 292000Z 10004KT CAVOK 21/01 Q1021 A3016
TAF OICI 291710Z 2918/3024 35003MPS CAVOK 
     BECMG 3008/3010 34008MPS 8000 NSC
       
OICJ 291950Z AUTO 34004KT //// // ////// 19/M03 Q1023
OICK 291950Z 13006KT CAVOK 21/01 Q1018
OICS 291951Z 00000KT CAVOK 18/02 Q1021
OIFK 292000Z 00000KT CAVOK 27/01 Q1018
OIFM 292030Z 27010KT CAVOK 23/M06 Q1022 A3018
TAF OIFM 291710Z 2918/3024 34004MPS CAVOK 
     BECMG 3002/3004 4000 HZ 
     BECMG 3004/3006 7000 NSC
       
OIFS 292000Z 15002KT CAVOK 14/M01 Q1026
OIGG 292000Z 00000KT CAVOK 20/17 Q1020
OIGK 291950Z AUTO 14002KT //// // ////// 15/M04 Q1024
OIHH 291950Z 19004KT CAVOK 16/00 Q1023
OIHM 291950Z 11004KT CAVOK 16/M01 Q1023
OIIE 292020Z 30010KT CAVOK 23/02 Q1017
TAF OIIE 291710Z 2918/3024 32006MPS CAVOK 
     BECMG 3005/3007 14005MPS 
     BECMG 3020/3022 33004MPS
       
OIII 292030Z 27006KT CAVOK 26/M03 Q1018 A3008 NOSIG
TAF OIII 291710Z 2918/3024 30005MPS CAVOK 
     BECMG 3004/3006 16005MPS 
     BECMG 3018/3020 32004MPS
       
OIIK 292000Z 00000KT CAVOK 16/07 Q1020
OIIP 291600Z 28018KT CAVOK 27/M04 Q1017
OIIS 292000Z 36006KT CAVOK 27/M05 Q1018
OIKB 292030Z 02004KT 6000 NSC 30/25 Q1000 A2954
TAF OIKB 291710Z 2918/3024 19005MPS 6000 NSC 
     BECMG 2920/2922 35003MPS 4500 HZ NSC 
     BECMG 3004/3006 19005MPS 5000 HZ 
     BECMG 3020/3022 34003MPS
       
OIKK 292000Z 32010KT CAVOK 27/M16 Q1020 A3012
TAF OIKK 291710Z 2918/3024 08004MPS CAVOK 
     TEMPO 3012/3015 35006MPS
       
OIKO 291950Z 11004KT 4000 HZ NSC 31/11 Q1001
OIKQ 292000Z 24012KT 0500 FG VV020 28/28 Q1000
OIMB 292000Z 06014KT CAVOK 23/04 Q1018
OIMC 292000Z AUTO 28002KT //// // ////// 23/10 Q1018
OIMD 292000Z AUTO 10012KT //// // ////// 26/08 Q1015
OIMM 292000Z 08008KT CAVOK 22/06 Q1021 A3017
TAF OIMM 291710Z 2918/3024 11004MPS CAVOK 
     TEMPO 3009/3016 04009MPS FEW040
       
OIMN 292000Z 00000KT CAVOK 18/10 Q1024
OIMQ 292000Z AUTO 13004KT //// // ////// 28/06 Q1018
OINB 292000Z VRB02KT CAVOK 21/17 Q1019
OINE 291800Z 18006KT CAVOK 21/13 Q1020
OING 292000Z 00000KT CAVOK 18/15 Q1021
OINK 291700Z 24004KT 9999 FEW030 24/13 Q1019
OINN 292000Z 19004KT 9999 FEW028 20/16 Q1018
OINR 292000Z 00000KT CAVOK 19/17 Q1018
OINZ 292000Z 17006KT CAVOK 19/17 Q1019
OISA 292000Z 35008KT CAVOK 25/M12 Q1024
OISF 292000Z VRB04KT CAVOK 26/01 Q1011
OISL 292000Z 00000KT CAVOK 29/04 Q1007
TAF OISL 291710Z 2918/3024 22005MPS CAVOK
       
OISR 291500Z 27006KT CAVOK 43/10 Q1003
OISS 292030Z 00000KT CAVOK 28/M03 Q1016 A3002
TAF OISS 291710Z 2918/3024 28004MPS CAVOK
       
OISY 292000Z 00000KT CAVOK 20/02 Q1023
OITL 291952Z 11006KT 6000 PRFG OVC004 12/12 Q1022
OITM 291800Z 09008KT CAVOK 22/01 Q1019
OITP 292000Z 09008KT CAVOK 18/15 Q1017
OITR 292030Z 26006KT CAVOK 15/05 Q1019
TAF OITR 291710Z 2918/3024 21004MPS CAVOK 
     BECMG 3005/3007 11005MPS 8000 FEW035 
     BECMG 3017/3019 22005MPS
       
OITT 292030Z 10006KT CAVOK 21/06 Q1021 A3016
TAF OITT 291710Z 2918/3024 08004MPS 8000 NSC 
     BECMG 3008/3010 28005MPS
       
OITU 291951Z 10004KT 9999 FEW040 17/09 Q1019
OITZ 291500Z 08014KT 9999 FEW035 24/05 Q1021
OIYY 292000Z 29010KT CAVOK 29/M11 Q1019
OIZB 292000Z 34023G37KT 8000 NSC 31/11 Q1006
OIZC 291900Z 21006KT 5000 HZ NSC 32/19 Q0996 A2942
OIZH 292000Z 02016KT CAVOK 30/04 Q1015 A2998
TAF OIZH 291710Z 2918/3024 02005MPS CAVOK 
     PROB40 
     TEMPO 3004/3024 3000 DU
       
OIZI 292000Z 08004KT CAVOK 37/M03 Q1003
OIZJ 291800Z 29012KT 4000 HZ NSC 33/20 Q0998
OIAA 292000Z 32008KT CAVOK 35/09 Q1006
TAF OIAA 291710Z 2918/3024 31005MPS CAVOK 
     TEMPO 3008/3024 32010MPS 2000 SA DU NSC
       
OIAD 291900Z 00000KT 7000 NSC 35/09 Q1007 A2974
OIAG 292000Z 31008KT CAVOK 34/06 Q1004
OIAH 292000Z 31008KT CAVOK 37/M11 Q1010
OIAI 292000Z 32002KT CAVOK 34/M05 Q1007
OIAM 292000Z 30014KT CAVOK 36/11 Q1004
OIAW 292030Z 31008KT CAVOK 37/11 Q1004
TAF OIAW 291710Z 2918/3024 33005MPS CAVOK 
     TEMPO 3008/3024 32010MPS 2000 SA DU NSC
       
OIBA 291500Z 25004KT 4000 BR NSC 31/31 Q1000
OIBB 292000Z 33017KT CAVOK 32/18 Q1002 A2961
OIBJ 291500Z 23006KT CAVOK 40/13 Q1007
OIBK 292000Z 27004KT 0200 FG VV005 29/29 Q1001
TAF AMD OIBK 291830Z 2918/3024 27003MPS 0500 FG NSC 
     BECMG 3003/3005 4000 HZ
       
OIBL 291800Z 25006KT 3000 BR NSC 30/29 Q1001
OIBP 291700Z 32004KT CAVOK 31/28 Q0999 A2952
OIBQ 291500Z 30016KT CAVOK 33/23 Q1001
OIBS 291500Z 23008KT 4000 HZ NSC 32/28 Q1000
OICC 292030Z 10004KT CAVOK 18/02 Q1020 A3012
OICI 292000Z 10004KT CAVOK 21/01 Q1021 A3016
TAF OICI 291710Z 2918/3024 35003MPS CAVOK 
     BECMG 3008/3010 34008MPS 8000 NSC
       
OICJ 291950Z AUTO 34004KT //// // ////// 19/M03 Q1023
OICK 291950Z 13006KT CAVOK 21/01 Q1018
OICS 291951Z 00000KT CAVOK 18/02 Q1021
OIFK 292000Z 00000KT CAVOK 27/01 Q1018
OIFM 292030Z 27010KT CAVOK 23/M06 Q1022 A3018
TAF OIFM 291710Z 2918/3024 34004MPS CAVOK 
     BECMG 3002/3004 4000 HZ 
     BECMG 3004/3006 7000 NSC
       
OIFS 292000Z 15002KT CAVOK 14/M01 Q1026
OIGG 292000Z 00000KT CAVOK 20/17 Q1020
OIGK 291950Z AUTO 14002KT //// // ////// 15/M04 Q1024
OIHH 291950Z 19004KT CAVOK 16/00 Q1023
OIHM 291950Z 11004KT CAVOK 16/M01 Q1023
OIIE 292020Z 30010KT CAVOK 23/02 Q1017
TAF OIIE 291710Z 2918/3024 32006MPS CAVOK 
     BECMG 3005/3007 14005MPS 
     BECMG 3020/3022 33004MPS
       
OIII 292030Z 27006KT CAVOK 26/M03 Q1018 A3008 NOSIG
TAF OIII 291710Z 2918/3024 30005MPS CAVOK 
     BECMG 3004/3006 16005MPS 
     BECMG 3018/3020 32004MPS
       
OIIK 292000Z 00000KT CAVOK 16/07 Q1020
OIIP 291600Z 28018KT CAVOK 27/M04 Q1017
OIIS 292000Z 36006KT CAVOK 27/M05 Q1018
OIKB 292030Z 02004KT 6000 NSC 30/25 Q1000 A2954
TAF OIKB 291710Z 2918/3024 19005MPS 6000 NSC 
     BECMG 2920/2922 35003MPS 4500 HZ NSC 
     BECMG 3004/3006 19005MPS 5000 HZ 
     BECMG 3020/3022 34003MPS
       
OIKK 292000Z 32010KT CAVOK 27/M16 Q1020 A3012
TAF OIKK 291710Z 2918/3024 08004MPS CAVOK 
     TEMPO 3012/3015 35006MPS
       
OIKO 291950Z 11004KT 4000 HZ NSC 31/11 Q1001
OIKQ 292000Z 24012KT 0500 FG VV020 28/28 Q1000
OIMB 292000Z 06014KT CAVOK 23/04 Q1018
OIMC 292000Z AUTO 28002KT //// // ////// 23/10 Q1018
OIMD 292000Z AUTO 10012KT //// // ////// 26/08 Q1015
OIMM 292000Z 08008KT CAVOK 22/06 Q1021 A3017
TAF OIMM 291710Z 2918/3024 11004MPS CAVOK 
     TEMPO 3009/3016 04009MPS FEW040
       
OIMN 292000Z 00000KT CAVOK 18/10 Q1024
OIMQ 292000Z AUTO 13004KT //// // ////// 28/06 Q1018
OINB 292000Z VRB02KT CAVOK 21/17 Q1019
OINE 291800Z 18006KT CAVOK 21/13 Q1020
OING 292000Z 00000KT CAVOK 18/15 Q1021
OINK 291700Z 24004KT 9999 FEW030 24/13 Q1019
OINN 292000Z 19004KT 9999 FEW028 20/16 Q1018
OINR 292000Z 00000KT CAVOK 19/17 Q1018
OINZ 292000Z 17006KT CAVOK 19/17 Q1019
OISA 292000Z 35008KT CAVOK 25/M12 Q1024
OISF 292000Z VRB04KT CAVOK 26/01 Q1011
OISL 292000Z 00000KT CAVOK 29/04 Q1007
TAF OISL 291710Z 2918/3024 22005MPS CAVOK
       
OISR 291500Z 27006KT CAVOK 43/10 Q1003
OISS 292030Z 00000KT CAVOK 28/M03 Q1016 A3002
TAF OISS 291710Z 2918/3024 28004MPS CAVOK
       
OISY 292000Z 00000KT CAVOK 20/02 Q1023
OITL 291952Z 11006KT 6000 PRFG OVC004 12/12 Q1022
OITM 291800Z 09008KT CAVOK 22/01 Q1019
OITP 292000Z 09008KT CAVOK 18/15 Q1017
OITR 292030Z 26006KT CAVOK 15/05 Q1019
TAF OITR 291710Z 2918/3024 21004MPS CAVOK 
     BECMG 3005/3007 11005MPS 8000 FEW035 
     BECMG 3017/3019 22005MPS
       
OITT 292030Z 10006KT CAVOK 21/06 Q1021 A3016
TAF OITT 291710Z 2918/3024 08004MPS 8000 NSC 
     BECMG 3008/3010 28005MPS
       
OITU 291951Z 10004KT 9999 FEW040 17/09 Q1019
OITZ 291500Z 08014KT 9999 FEW035 24/05 Q1021
OIYY 292000Z 29010KT CAVOK 29/M11 Q1019
OIZB 292000Z 34023G37KT 8000 NSC 31/11 Q1006
OIZC 291900Z 21006KT 5000 HZ NSC 32/19 Q0996 A2942
OIZH 292000Z 02016KT CAVOK 30/04 Q1015 A2998
TAF OIZH 291710Z 2918/3024 02005MPS CAVOK 
     PROB40 
     TEMPO 3004/3024 3000 DU
       
OIZI 292000Z 08004KT CAVOK 37/M03 Q1003
OIZJ 291800Z 29012KT 4000 HZ NSC 33/20 Q0998
OIKB 292030Z 02004KT 6000 NSC 30/25 Q1000 A2954
TAF OIKB 291710Z 2918/3024 19005MPS 6000 NSC 
     BECMG 2920/2922 35003MPS 4500 HZ NSC 
     BECMG 3004/3006 19005MPS 5000 HZ 
     BECMG 3020/3022 34003MPS
       
OIBL 291800Z 25006KT 3000 BR NSC 30/29 Q1001
OIAA 292000Z 32008KT CAVOK 35/09 Q1006
TAF OIAA 291710Z 2918/3024 31005MPS CAVOK 
     TEMPO 3008/3024 32010MPS 2000 SA DU NSC
       
OIAD 291900Z 00000KT 7000 NSC 35/09 Q1007 A2974
OIAG 292000Z 31008KT CAVOK 34/06 Q1004
OIAH 292000Z 31008KT CAVOK 37/M11 Q1010
OIAI 292000Z 32002KT CAVOK 34/M05 Q1007
OIAM 292000Z 30014KT CAVOK 36/11 Q1004
OIAW 292030Z 31008KT CAVOK 37/11 Q1004
TAF OIAW 291710Z 2918/3024 33005MPS CAVOK 
     TEMPO 3008/3024 32010MPS 2000 SA DU NSC
       
OIBA 291500Z 25004KT 4000 BR NSC 31/31 Q1000
OIBB 292000Z 33017KT CAVOK 32/18 Q1002 A2961
OIBJ 291500Z 23006KT CAVOK 40/13 Q1007
OIBK 292000Z 27004KT 0200 FG VV005 29/29 Q1001
TAF AMD OIBK 291830Z 2918/3024 27003MPS 0500 FG NSC 
     BECMG 3003/3005 4000 HZ
       
OIBL 291800Z 25006KT 3000 BR NSC 30/29 Q1001
OIBP 291700Z 32004KT CAVOK 31/28 Q0999 A2952
OIBQ 291500Z 30016KT CAVOK 33/23 Q1001
OIBS 291500Z 23008KT 4000 HZ NSC 32/28 Q1000
OICC 292030Z 10004KT CAVOK 18/02 Q1020 A3012
OICI 292000Z 10004KT CAVOK 21/01 Q1021 A3016
TAF OICI 291710Z 2918/3024 35003MPS CAVOK 
     BECMG 3008/3010 34008MPS 8000 NSC
       
OICJ 291950Z AUTO 34004KT //// // ////// 19/M03 Q1023
OICK 291950Z 13006KT CAVOK 21/01 Q1018
OICS 291951Z 00000KT CAVOK 18/02 Q1021
OIFK 292000Z 00000KT CAVOK 27/01 Q1018
OIFM 292030Z 27010KT CAVOK 23/M06 Q1022 A3018
TAF OIFM 291710Z 2918/3024 34004MPS CAVOK 
     BECMG 3002/3004 4000 HZ 
     BECMG 3004/3006 7000 NSC
       
OIFS 292000Z 15002KT CAVOK 14/M01 Q1026
OIGG 292000Z 00000KT CAVOK 20/17 Q1020
OIGK 291950Z AUTO 14002KT //// // ////// 15/M04 Q1024
OIHH 291950Z 19004KT CAVOK 16/00 Q1023
OIHM 291950Z 11004KT CAVOK 16/M01 Q1023
OIIE 292020Z 30010KT CAVOK 23/02 Q1017
TAF OIIE 291710Z 2918/3024 32006MPS CAVOK 
     BECMG 3005/3007 14005MPS 
     BECMG 3020/3022 33004MPS
       
OIII 292030Z 27006KT CAVOK 26/M03 Q1018 A3008 NOSIG
TAF OIII 291710Z 2918/3024 30005MPS CAVOK 
     BECMG 3004/3006 16005MPS 
     BECMG 3018/3020 32004MPS
       
OIIK 292000Z 00000KT CAVOK 16/07 Q1020
OIIP 291600Z 28018KT CAVOK 27/M04 Q1017
OIIS 292000Z 36006KT CAVOK 27/M05 Q1018
OIKB 292030Z 02004KT 6000 NSC 30/25 Q1000 A2954
TAF OIKB 291710Z 2918/3024 19005MPS 6000 NSC 
     BECMG 2920/2922 35003MPS 4500 HZ NSC 
     BECMG 3004/3006 19005MPS 5000 HZ 
     BECMG 3020/3022 34003MPS
       
OIKK 292000Z 32010KT CAVOK 27/M16 Q1020 A3012
TAF OIKK 291710Z 2918/3024 08004MPS CAVOK 
     TEMPO 3012/3015 35006MPS
       
OIKO 291950Z 11004KT 4000 HZ NSC 31/11 Q1001
OIKQ 292000Z 24012KT 0500 FG VV020 28/28 Q1000
OIMB 292000Z 06014KT CAVOK 23/04 Q1018
OIMC 292000Z AUTO 28002KT //// // ////// 23/10 Q1018
OIMD 292000Z AUTO 10012KT //// // ////// 26/08 Q1015
OIMM 292000Z 08008KT CAVOK 22/06 Q1021 A3017
TAF OIMM 291710Z 2918/3024 11004MPS CAVOK 
     TEMPO 3009/3016 04009MPS FEW040
       
OIMN 292000Z 00000KT CAVOK 18/10 Q1024
OIMQ 292000Z AUTO 13004KT //// // ////// 28/06 Q1018
OINB 292000Z VRB02KT CAVOK 21/17 Q1019
OINE 291800Z 18006KT CAVOK 21/13 Q1020
OING 292000Z 00000KT CAVOK 18/15 Q1021
OINK 291700Z 24004KT 9999 FEW030 24/13 Q1019
OINN 292000Z 19004KT 9999 FEW028 20/16 Q1018
OINR 292000Z 00000KT CAVOK 19/17 Q1018
OINZ 292000Z 17006KT CAVOK 19/17 Q1019
OISA 292000Z 35008KT CAVOK 25/M12 Q1024
OISF 292000Z VRB04KT CAVOK 26/01 Q1011
OISL 292000Z 00000KT CAVOK 29/04 Q1007
TAF OISL 291710Z 2918/3024 22005MPS CAVOK
       
OISR 291500Z 27006KT CAVOK 43/10 Q1003
OISS 292030Z 00000KT CAVOK 28/M03 Q1016 A3002
TAF OISS 291710Z 2918/3024 28004MPS CAVOK
       
OISY 292000Z 00000KT CAVOK 20/02 Q1023
OITL 291952Z 11006KT 6000 PRFG OVC004 12/12 Q1022
OITM 291800Z 09008KT CAVOK 22/01 Q1019
OITP 292000Z 09008KT CAVOK 18/15 Q1017
OITR 292030Z 26006KT CAVOK 15/05 Q1019
TAF OITR 291710Z 2918/3024 21004MPS CAVOK 
     BECMG 3005/3007 11005MPS 8000 FEW035 
     BECMG 3017/3019 22005MPS
       
OITT 292030Z 10006KT CAVOK 21/06 Q1021 A3016
TAF OITT 291710Z 2918/3024 08004MPS 8000 NSC 
     BECMG 3008/3010 28005MPS
       
OITU 291951Z 10004KT 9999 FEW040 17/09 Q1019
OITZ 291500Z 08014KT 9999 FEW035 24/05 Q1021
OIYY 292000Z 29010KT CAVOK 29/M11 Q1019
OIZB 292000Z 34023G37KT 8000 NSC 31/11 Q1006
OIZC 291900Z 21006KT 5000 HZ NSC 32/19 Q0996 A2942
OIZH 292000Z 02016KT CAVOK 30/04 Q1015 A2998
TAF OIZH 291710Z 2918/3024 02005MPS CAVOK 
     PROB40 
     TEMPO 3004/3024 3000 DU
       
OIZI 292000Z 08004KT CAVOK 37/M03 Q1003
OIZJ 291800Z 29012KT 4000 HZ NSC 33/20 Q0998
OIMB 292000Z 06014KT CAVOK 23/04 Q1018
OIMN 292000Z 00000KT CAVOK 18/10 Q1024
OIBB 292000Z 33017KT CAVOK 32/18 Q1002 A2961
OIZC 291900Z 21006KT 5000 HZ NSC 32/19 Q0996 A2942
OIKQ 292000Z 24012KT 0500 FG VV020 28/28 Q1000
OIAD 291900Z 00000KT 7000 NSC 35/09 Q1007 A2974
OIAA 292000Z 32008KT CAVOK 35/09 Q1006
TAF OIAA 291710Z 2918/3024 31005MPS CAVOK 
     TEMPO 3008/3024 32010MPS 2000 SA DU NSC
       
OIAD 291900Z 00000KT 7000 NSC 35/09 Q1007 A2974
OIAG 292000Z 31008KT CAVOK 34/06 Q1004
OIAH 292000Z 31008KT CAVOK 37/M11 Q1010
OIAI 292000Z 32002KT CAVOK 34/M05 Q1007
OIAM 292000Z 30014KT CAVOK 36/11 Q1004
OIAW 292030Z 31008KT CAVOK 37/11 Q1004
TAF OIAW 291710Z 2918/3024 33005MPS CAVOK 
     TEMPO 3008/3024 32010MPS 2000 SA DU NSC
       
OIBA 291500Z 25004KT 4000 BR NSC 31/31 Q1000
OIBB 292000Z 33017KT CAVOK 32/18 Q1002 A2961
OIBJ 291500Z 23006KT CAVOK 40/13 Q1007
OIBK 292000Z 27004KT 0200 FG VV005 29/29 Q1001
TAF AMD OIBK 291830Z 2918/3024 27003MPS 0500 FG NSC 
     BECMG 3003/3005 4000 HZ
       
OIBL 291800Z 25006KT 3000 BR NSC 30/29 Q1001
OIBP 291700Z 32004KT CAVOK 31/28 Q0999 A2952
OIBQ 291500Z 30016KT CAVOK 33/23 Q1001
OIBS 291500Z 23008KT 4000 HZ NSC 32/28 Q1000
OICC 292030Z 10004KT CAVOK 18/02 Q1020 A3012
OICI 292000Z 10004KT CAVOK 21/01 Q1021 A3016
TAF OICI 291710Z 2918/3024 35003MPS CAVOK 
     BECMG 3008/3010 34008MPS 8000 NSC
       
OICJ 291950Z AUTO 34004KT //// // ////// 19/M03 Q1023
OICK 291950Z 13006KT CAVOK 21/01 Q1018
OICS 291951Z 00000KT CAVOK 18/02 Q1021
OIFK 292000Z 00000KT CAVOK 27/01 Q1018
OIFM 292030Z 27010KT CAVOK 23/M06 Q1022 A3018
TAF OIFM 291710Z 2918/3024 34004MPS CAVOK 
     BECMG 3002/3004 4000 HZ 
     BECMG 3004/3006 7000 NSC
       
OIFS 292000Z 15002KT CAVOK 14/M01 Q1026
OIGG 292000Z 00000KT CAVOK 20/17 Q1020
OIGK 291950Z AUTO 14002KT //// // ////// 15/M04 Q1024
OIHH 291950Z 19004KT CAVOK 16/00 Q1023
OIHM 291950Z 11004KT CAVOK 16/M01 Q1023
OIIE 292020Z 30010KT CAVOK 23/02 Q1017
TAF OIIE 291710Z 2918/3024 32006MPS CAVOK 
     BECMG 3005/3007 14005MPS 
     BECMG 3020/3022 33004MPS
       
OIII 292030Z 27006KT CAVOK 26/M03 Q1018 A3008 NOSIG
TAF OIII 291710Z 2918/3024 30005MPS CAVOK 
     BECMG 3004/3006 16005MPS 
     BECMG 3018/3020 32004MPS
       
OIIK 292000Z 00000KT CAVOK 16/07 Q1020
OIIP 291600Z 28018KT CAVOK 27/M04 Q1017
OIIS 292000Z 36006KT CAVOK 27/M05 Q1018
OIKB 292030Z 02004KT 6000 NSC 30/25 Q1000 A2954
TAF OIKB 291710Z 2918/3024 19005MPS 6000 NSC 
     BECMG 2920/2922 35003MPS 4500 HZ NSC 
     BECMG 3004/3006 19005MPS 5000 HZ 
     BECMG 3020/3022 34003MPS
       
OIKK 292000Z 32010KT CAVOK 27/M16 Q1020 A3012
TAF OIKK 291710Z 2918/3024 08004MPS CAVOK 
     TEMPO 3012/3015 35006MPS
       
OIKO 291950Z 11004KT 4000 HZ NSC 31/11 Q1001
OIKQ 292000Z 24012KT 0500 FG VV020 28/28 Q1000
OIMB 292000Z 06014KT CAVOK 23/04 Q1018
OIMC 292000Z AUTO 28002KT //// // ////// 23/10 Q1018
OIMD 292000Z AUTO 10012KT //// // ////// 26/08 Q1015
OIMM 292000Z 08008KT CAVOK 22/06 Q1021 A3017
TAF OIMM 291710Z 2918/3024 11004MPS CAVOK 
     TEMPO 3009/3016 04009MPS FEW040
       
OIMN 292000Z 00000KT CAVOK 18/10 Q1024
OIMQ 292000Z AUTO 13004KT //// // ////// 28/06 Q1018
OINB 292000Z VRB02KT CAVOK 21/17 Q1019
OINE 291800Z 18006KT CAVOK 21/13 Q1020
OING 292000Z 00000KT CAVOK 18/15 Q1021
OINK 291700Z 24004KT 9999 FEW030 24/13 Q1019
OINN 292000Z 19004KT 9999 FEW028 20/16 Q1018
OINR 292000Z 00000KT CAVOK 19/17 Q1018
OINZ 292000Z 17006KT CAVOK 19/17 Q1019
OISA 292000Z 35008KT CAVOK 25/M12 Q1024
OISF 292000Z VRB04KT CAVOK 26/01 Q1011
OISL 292000Z 00000KT CAVOK 29/04 Q1007
TAF OISL 291710Z 2918/3024 22005MPS CAVOK
       
OISR 291500Z 27006KT CAVOK 43/10 Q1003
OISS 292030Z 00000KT CAVOK 28/M03 Q1016 A3002
TAF OISS 291710Z 2918/3024 28004MPS CAVOK
       
OISY 292000Z 00000KT CAVOK 20/02 Q1023
OITL 291952Z 11006KT 6000 PRFG OVC004 12/12 Q1022
OITM 291800Z 09008KT CAVOK 22/01 Q1019
OITP 292000Z 09008KT CAVOK 18/15 Q1017
OITR 292030Z 26006KT CAVOK 15/05 Q1019
TAF OITR 291710Z 2918/3024 21004MPS CAVOK 
     BECMG 3005/3007 11005MPS 8000 FEW035 
     BECMG 3017/3019 22005MPS
       
OITT 292030Z 10006KT CAVOK 21/06 Q1021 A3016
TAF OITT 291710Z 2918/3024 08004MPS 8000 NSC 
     BECMG 3008/3010 28005MPS
       
OITU 291951Z 10004KT 9999 FEW040 17/09 Q1019
OITZ 291500Z 08014KT 9999 FEW035 24/05 Q1021
OIYY 292000Z 29010KT CAVOK 29/M11 Q1019
OIZB 292000Z 34023G37KT 8000 NSC 31/11 Q1006
OIZC 291900Z 21006KT 5000 HZ NSC 32/19 Q0996 A2942
OIZH 292000Z 02016KT CAVOK 30/04 Q1015 A2998
TAF OIZH 291710Z 2918/3024 02005MPS CAVOK 
     PROB40 
     TEMPO 3004/3024 3000 DU
       
OIZI 292000Z 08004KT CAVOK 37/M03 Q1003
OIZJ 291800Z 29012KT 4000 HZ NSC 33/20 Q0998
OIFM 292030Z 27010KT CAVOK 23/M06 Q1022 A3018
TAF OIFM 291710Z 2918/3024 34004MPS CAVOK 
     BECMG 3002/3004 4000 HZ 
     BECMG 3004/3006 7000 NSC
       
OISF 292000Z VRB04KT CAVOK 26/01 Q1011
OIAH 292000Z 31008KT CAVOK 37/M11 Q1010
OIAA 292000Z 32008KT CAVOK 35/09 Q1006
TAF OIAA 291710Z 2918/3024 31005MPS CAVOK 
     TEMPO 3008/3024 32010MPS 2000 SA DU NSC
       
OIAD 291900Z 00000KT 7000 NSC 35/09 Q1007 A2974
OIAG 292000Z 31008KT CAVOK 34/06 Q1004
OIAH 292000Z 31008KT CAVOK 37/M11 Q1010
OIAI 292000Z 32002KT CAVOK 34/M05 Q1007
OIAM 292000Z 30014KT CAVOK 36/11 Q1004
OIAW 292030Z 31008KT CAVOK 37/11 Q1004
TAF OIAW 291710Z 2918/3024 33005MPS CAVOK 
     TEMPO 3008/3024 32010MPS 2000 SA DU NSC
       
OIBA 291500Z 25004KT 4000 BR NSC 31/31 Q1000
OIBB 292000Z 33017KT CAVOK 32/18 Q1002 A2961
OIBJ 291500Z 23006KT CAVOK 40/13 Q1007
OIBK 292000Z 27004KT 0200 FG VV005 29/29 Q1001
TAF AMD OIBK 291830Z 2918/3024 27003MPS 0500 FG NSC 
     BECMG 3003/3005 4000 HZ
       
OIBL 291800Z 25006KT 3000 BR NSC 30/29 Q1001
OIBP 291700Z 32004KT CAVOK 31/28 Q0999 A2952
OIBQ 291500Z 30016KT CAVOK 33/23 Q1001
OIBS 291500Z 23008KT 4000 HZ NSC 32/28 Q1000
OICC 292030Z 10004KT CAVOK 18/02 Q1020 A3012
OICI 292000Z 10004KT CAVOK 21/01 Q1021 A3016
TAF OICI 291710Z 2918/3024 35003MPS CAVOK 
     BECMG 3008/3010 34008MPS 8000 NSC
       
OICJ 291950Z AUTO 34004KT //// // ////// 19/M03 Q1023
OICK 291950Z 13006KT CAVOK 21/01 Q1018
OICS 291951Z 00000KT CAVOK 18/02 Q1021
OIFK 292000Z 00000KT CAVOK 27/01 Q1018
OIFM 292030Z 27010KT CAVOK 23/M06 Q1022 A3018
TAF OIFM 291710Z 2918/3024 34004MPS CAVOK 
     BECMG 3002/3004 4000 HZ 
     BECMG 3004/3006 7000 NSC
       
OIFS 292000Z 15002KT CAVOK 14/M01 Q1026
OIGG 292000Z 00000KT CAVOK 20/17 Q1020
OIGK 291950Z AUTO 14002KT //// // ////// 15/M04 Q1024
OIHH 291950Z 19004KT CAVOK 16/00 Q1023
OIHM 291950Z 11004KT CAVOK 16/M01 Q1023
OIIE 292020Z 30010KT CAVOK 23/02 Q1017
TAF OIIE 291710Z 2918/3024 32006MPS CAVOK 
     BECMG 3005/3007 14005MPS 
     BECMG 3020/3022 33004MPS
       
OIII 292030Z 27006KT CAVOK 26/M03 Q1018 A3008 NOSIG
TAF OIII 291710Z 2918/3024 30005MPS CAVOK 
     BECMG 3004/3006 16005MPS 
     BECMG 3018/3020 32004MPS
       
OIIK 292000Z 00000KT CAVOK 16/07 Q1020
OIIP 291600Z 28018KT CAVOK 27/M04 Q1017
OIIS 292000Z 36006KT CAVOK 27/M05 Q1018
OIKB 292030Z 02004KT 6000 NSC 30/25 Q1000 A2954
TAF OIKB 291710Z 2918/3024 19005MPS 6000 NSC 
     BECMG 2920/2922 35003MPS 4500 HZ NSC 
     BECMG 3004/3006 19005MPS 5000 HZ 
     BECMG 3020/3022 34003MPS
       
OIKK 292000Z 32010KT CAVOK 27/M16 Q1020 A3012
TAF OIKK 291710Z 2918/3024 08004MPS CAVOK 
     TEMPO 3012/3015 35006MPS
       
OIKO 291950Z 11004KT 4000 HZ NSC 31/11 Q1001
OIKQ 292000Z 24012KT 0500 FG VV020 28/28 Q1000
OIMB 292000Z 06014KT CAVOK 23/04 Q1018
OIMC 292000Z AUTO 28002KT //// // ////// 23/10 Q1018
OIMD 292000Z AUTO 10012KT //// // ////// 26/08 Q1015
OIMM 292000Z 08008KT CAVOK 22/06 Q1021 A3017
TAF OIMM 291710Z 2918/3024 11004MPS CAVOK 
     TEMPO 3009/3016 04009MPS FEW040
       
OIMN 292000Z 00000KT CAVOK 18/10 Q1024
OIMQ 292000Z AUTO 13004KT //// // ////// 28/06 Q1018
OINB 292000Z VRB02KT CAVOK 21/17 Q1019
OINE 291800Z 18006KT CAVOK 21/13 Q1020
OING 292000Z 00000KT CAVOK 18/15 Q1021
OINK 291700Z 24004KT 9999 FEW030 24/13 Q1019
OINN 292000Z 19004KT 9999 FEW028 20/16 Q1018
OINR 292000Z 00000KT CAVOK 19/17 Q1018
OINZ 292000Z 17006KT CAVOK 19/17 Q1019
OISA 292000Z 35008KT CAVOK 25/M12 Q1024
OISF 292000Z VRB04KT CAVOK 26/01 Q1011
OISL 292000Z 00000KT CAVOK 29/04 Q1007
TAF OISL 291710Z 2918/3024 22005MPS CAVOK
       
OISR 291500Z 27006KT CAVOK 43/10 Q1003
OISS 292030Z 00000KT CAVOK 28/M03 Q1016 A3002
TAF OISS 291710Z 2918/3024 28004MPS CAVOK
       
OISY 292000Z 00000KT CAVOK 20/02 Q1023
OITL 291952Z 11006KT 6000 PRFG OVC004 12/12 Q1022
OITM 291800Z 09008KT CAVOK 22/01 Q1019
OITP 292000Z 09008KT CAVOK 18/15 Q1017
OITR 292030Z 26006KT CAVOK 15/05 Q1019
TAF OITR 291710Z 2918/3024 21004MPS CAVOK 
     BECMG 3005/3007 11005MPS 8000 FEW035 
     BECMG 3017/3019 22005MPS
       
OITT 292030Z 10006KT CAVOK 21/06 Q1021 A3016
TAF OITT 291710Z 2918/3024 08004MPS 8000 NSC 
     BECMG 3008/3010 28005MPS
       
OITU 291951Z 10004KT 9999 FEW040 17/09 Q1019
OITZ 291500Z 08014KT 9999 FEW035 24/05 Q1021
OIYY 292000Z 29010KT CAVOK 29/M11 Q1019
OIZB 292000Z 34023G37KT 8000 NSC 31/11 Q1006
OIZC 291900Z 21006KT 5000 HZ NSC 32/19 Q0996 A2942
OIZH 292000Z 02016KT CAVOK 30/04 Q1015 A2998
TAF OIZH 291710Z 2918/3024 02005MPS CAVOK 
     PROB40 
     TEMPO 3004/3024 3000 DU
       
OIZI 292000Z 08004KT CAVOK 37/M03 Q1003
OIZJ 291800Z 29012KT 4000 HZ NSC 33/20 Q0998
OIIK 292000Z 00000KT CAVOK 16/07 Q1020
OIAA 292000Z 32008KT CAVOK 35/09 Q1006
TAF OIAA 291710Z 2918/3024 31005MPS CAVOK 
     TEMPO 3008/3024 32010MPS 2000 SA DU NSC
       
OIAD 291900Z 00000KT 7000 NSC 35/09 Q1007 A2974
OIAG 292000Z 31008KT CAVOK 34/06 Q1004
OIAH 292000Z 31008KT CAVOK 37/M11 Q1010
OIAI 292000Z 32002KT CAVOK 34/M05 Q1007
OIAM 292000Z 30014KT CAVOK 36/11 Q1004
OIAW 292030Z 31008KT CAVOK 37/11 Q1004
TAF OIAW 291710Z 2918/3024 33005MPS CAVOK 
     TEMPO 3008/3024 32010MPS 2000 SA DU NSC
       
OIBA 291500Z 25004KT 4000 BR NSC 31/31 Q1000
OIBB 292000Z 33017KT CAVOK 32/18 Q1002 A2961
OIBJ 291500Z 23006KT CAVOK 40/13 Q1007
OIBK 292000Z 27004KT 0200 FG VV005 29/29 Q1001
TAF AMD OIBK 291830Z 2918/3024 27003MPS 0500 FG NSC 
     BECMG 3003/3005 4000 HZ
       
OIBL 291800Z 25006KT 3000 BR NSC 30/29 Q1001
OIBP 291700Z 32004KT CAVOK 31/28 Q0999 A2952
OIBQ 291500Z 30016KT CAVOK 33/23 Q1001
OIBS 291500Z 23008KT 4000 HZ NSC 32/28 Q1000
OICC 292030Z 10004KT CAVOK 18/02 Q1020 A3012
OICI 292000Z 10004KT CAVOK 21/01 Q1021 A3016
TAF OICI 291710Z 2918/3024 35003MPS CAVOK 
     BECMG 3008/3010 34008MPS 8000 NSC
       
OICJ 291950Z AUTO 34004KT //// // ////// 19/M03 Q1023
OICK 291950Z 13006KT CAVOK 21/01 Q1018
OICS 291951Z 00000KT CAVOK 18/02 Q1021
OIFK 292000Z 00000KT CAVOK 27/01 Q1018
OIFM 292030Z 27010KT CAVOK 23/M06 Q1022 A3018
TAF OIFM 291710Z 2918/3024 34004MPS CAVOK 
     BECMG 3002/3004 4000 HZ 
     BECMG 3004/3006 7000 NSC
       
OIFS 292000Z 15002KT CAVOK 14/M01 Q1026
OIGG 292000Z 00000KT CAVOK 20/17 Q1020
OIGK 291950Z AUTO 14002KT //// // ////// 15/M04 Q1024
OIHH 291950Z 19004KT CAVOK 16/00 Q1023
OIHM 291950Z 11004KT CAVOK 16/M01 Q1023
OIIE 292020Z 30010KT CAVOK 23/02 Q1017
TAF OIIE 291710Z 2918/3024 32006MPS CAVOK 
     BECMG 3005/3007 14005MPS 
     BECMG 3020/3022 33004MPS
       
OIII 292030Z 27006KT CAVOK 26/M03 Q1018 A3008 NOSIG
TAF OIII 291710Z 2918/3024 30005MPS CAVOK 
     BECMG 3004/3006 16005MPS 
     BECMG 3018/3020 32004MPS
       
OIIK 292000Z 00000KT CAVOK 16/07 Q1020
OIIP 291600Z 28018KT CAVOK 27/M04 Q1017
OIIS 292000Z 36006KT CAVOK 27/M05 Q1018
OIKB 292030Z 02004KT 6000 NSC 30/25 Q1000 A2954
TAF OIKB 291710Z 2918/3024 19005MPS 6000 NSC 
     BECMG 2920/2922 35003MPS 4500 HZ NSC 
     BECMG 3004/3006 19005MPS 5000 HZ 
     BECMG 3020/3022 34003MPS
       
OIKK 292000Z 32010KT CAVOK 27/M16 Q1020 A3012
TAF OIKK 291710Z 2918/3024 08004MPS CAVOK 
     TEMPO 3012/3015 35006MPS
       
OIKO 291950Z 11004KT 4000 HZ NSC 31/11 Q1001
OIKQ 292000Z 24012KT 0500 FG VV020 28/28 Q1000
OIMB 292000Z 06014KT CAVOK 23/04 Q1018
OIMC 292000Z AUTO 28002KT //// // ////// 23/10 Q1018
OIMD 292000Z AUTO 10012KT //// // ////// 26/08 Q1015
OIMM 292000Z 08008KT CAVOK 22/06 Q1021 A3017
TAF OIMM 291710Z 2918/3024 11004MPS CAVOK 
     TEMPO 3009/3016 04009MPS FEW040
       
OIMN 292000Z 00000KT CAVOK 18/10 Q1024
OIMQ 292000Z AUTO 13004KT //// // ////// 28/06 Q1018
OINB 292000Z VRB02KT CAVOK 21/17 Q1019
OINE 291800Z 18006KT CAVOK 21/13 Q1020
OING 292000Z 00000KT CAVOK 18/15 Q1021
OINK 291700Z 24004KT 9999 FEW030 24/13 Q1019
OINN 292000Z 19004KT 9999 FEW028 20/16 Q1018
OINR 292000Z 00000KT CAVOK 19/17 Q1018
OINZ 292000Z 17006KT CAVOK 19/17 Q1019
OISA 292000Z 35008KT CAVOK 25/M12 Q1024
OISF 292000Z VRB04KT CAVOK 26/01 Q1011
OISL 292000Z 00000KT CAVOK 29/04 Q1007
TAF OISL 291710Z 2918/3024 22005MPS CAVOK
       
OISR 291500Z 27006KT CAVOK 43/10 Q1003
OISS 292030Z 00000KT CAVOK 28/M03 Q1016 A3002
TAF OISS 291710Z 2918/3024 28004MPS CAVOK
       
OISY 292000Z 00000KT CAVOK 20/02 Q1023
OITL 291952Z 11006KT 6000 PRFG OVC004 12/12 Q1022
OITM 291800Z 09008KT CAVOK 22/01 Q1019
OITP 292000Z 09008KT CAVOK 18/15 Q1017
OITR 292030Z 26006KT CAVOK 15/05 Q1019
TAF OITR 291710Z 2918/3024 21004MPS CAVOK 
     BECMG 3005/3007 11005MPS 8000 FEW035 
     BECMG 3017/3019 22005MPS
       
OITT 292030Z 10006KT CAVOK 21/06 Q1021 A3016
TAF OITT 291710Z 2918/3024 08004MPS 8000 NSC 
     BECMG 3008/3010 28005MPS
       
OITU 291951Z 10004KT 9999 FEW040 17/09 Q1019
OITZ 291500Z 08014KT 9999 FEW035 24/05 Q1021
OIYY 292000Z 29010KT CAVOK 29/M11 Q1019
OIZB 292000Z 34023G37KT 8000 NSC 31/11 Q1006
OIZC 291900Z 21006KT 5000 HZ NSC 32/19 Q0996 A2942
OIZH 292000Z 02016KT CAVOK 30/04 Q1015 A2998
TAF OIZH 291710Z 2918/3024 02005MPS CAVOK 
     PROB40 
     TEMPO 3004/3024 3000 DU
       
OIZI 292000Z 08004KT CAVOK 37/M03 Q1003
OIZJ 291800Z 29012KT 4000 HZ NSC 33/20 Q0998
OING 292000Z 00000KT CAVOK 18/15 Q1021
OIHH 291950Z 19004KT CAVOK 16/00 Q1023
OICI 292000Z 10004KT CAVOK 21/01 Q1021 A3016
TAF OICI 291710Z 2918/3024 35003MPS CAVOK 
     BECMG 3008/3010 34008MPS 8000 NSC
       
OIZI 292000Z 08004KT CAVOK 37/M03 Q1003
OIZJ 291800Z 29012KT 4000 HZ NSC 33/20 Q0998
OINE 291800Z 18006KT CAVOK 21/13 Q1020
OIKK 292000Z 32010KT CAVOK 27/M16 Q1020 A3012
TAF OIKK 291710Z 2918/3024 08004MPS CAVOK 
     TEMPO 3012/3015 35006MPS
       
OIBQ 291500Z 30016KT CAVOK 33/23 Q1001
OICK 291950Z 13006KT CAVOK 21/01 Q1018
OIBK 292000Z 27004KT 0200 FG VV005 29/29 Q1001
TAF AMD OIBK 291830Z 2918/3024 27003MPS 0500 FG NSC 
     BECMG 3003/3005 4000 HZ
       
OISR 291500Z 27006KT CAVOK 43/10 Q1003
OISL 292000Z 00000KT CAVOK 29/04 Q1007
TAF OISL 291710Z 2918/3024 22005MPS CAVOK
       
OIAM 292000Z 30014KT CAVOK 36/11 Q1004
OIMM 292000Z 08008KT CAVOK 22/06 Q1021 A3017
TAF OIMM 291710Z 2918/3024 11004MPS CAVOK 
     TEMPO 3009/3016 04009MPS FEW040
       
OIII 292030Z 27006KT CAVOK 26/M03 Q1018 A3008 NOSIG
TAF OIII 291710Z 2918/3024 30005MPS CAVOK 
     BECMG 3004/3006 16005MPS 
     BECMG 3018/3020 32004MPS
       
OINN 292000Z 19004KT 9999 FEW028 20/16 Q1018
OITP 292000Z 09008KT CAVOK 18/15 Q1017
OIIP 291600Z 28018KT CAVOK 27/M04 Q1017
OINR 292000Z 00000KT CAVOK 19/17 Q1018
OIGG 292000Z 00000KT CAVOK 20/17 Q1020
OITM 291800Z 09008KT CAVOK 22/01 Q1019
OICS 291951Z 00000KT CAVOK 18/02 Q1021
OIMC 292000Z AUTO 28002KT //// // ////// 23/10 Q1018
OINZ 292000Z 17006KT CAVOK 19/17 Q1019
OIIS 292000Z 36006KT CAVOK 27/M05 Q1018
OICC 292030Z 10004KT CAVOK 18/02 Q1020 A3012
OIAI 292000Z 32002KT CAVOK 34/M05 Q1007
OIFS 292000Z 15002KT CAVOK 14/M01 Q1026
OISS 292030Z 00000KT CAVOK 28/M03 Q1016 A3002
TAF OISS 291710Z 2918/3024 28004MPS CAVOK
       
OIBS 291500Z 23008KT 4000 HZ NSC 32/28 Q1000
OITT 292030Z 10006KT CAVOK 21/06 Q1021 A3016
TAF OITT 291710Z 2918/3024 08004MPS 8000 NSC 
     BECMG 3008/3010 28005MPS
       
OIBJ 291500Z 23006KT CAVOK 40/13 Q1007
OITR 292030Z 26006KT CAVOK 15/05 Q1019
TAF OITR 291710Z 2918/3024 21004MPS CAVOK 
     BECMG 3005/3007 11005MPS 8000 FEW035 
     BECMG 3017/3019 22005MPS
       
OISY 292000Z 00000KT CAVOK 20/02 Q1023
OIYY 292000Z 29010KT CAVOK 29/M11 Q1019
OIZB 292000Z 34023G37KT 8000 NSC 31/11 Q1006
OIZH 292000Z 02016KT CAVOK 30/04 Q1015 A2998
TAF OIZH 291710Z 2918/3024 02005MPS CAVOK 
     PROB40 
     TEMPO 3004/3024 3000 DU
       
OITZ 291500Z 08014KT 9999 FEW035 24/05 Q1021